1513890000.66,51398,7.56,73372.5,-9.97,-10.75,-10.67,0,*52
1513890001.95,51399,7.5,73378.3,-9.95,-10.67,-10.75,0,*51
1513890003.24,51400,7.56,73384.3,-9.95,-10.75,-10.75,0,*55
1513890004.49,51401,7.56,73386.0,-9.95,-10.79,-10.85,0,*57
1513890005.71,51402,7.5,73374.8,-9.95,-10.85,-10.85,0,*57
1513890006.94,51403,7.56,73378.0,-9.95,-10.93,-10.85,0,*51
1513890008.19,51404,7.5,73386.5,-9.95,-10.79,-10.85,0,*52
1513890009.47,51405,7.5,73384.8,-9.95,-10.79,-10.75,0,*5C
1513890010.73,51406,7.5,73390.0,-9.97,-10.79,-10.75,0,*5D
1513890012.0,51407,7.5,73388.0,-9.97,-10.75,-10.75,0,*50
1513890013.26,51408,7.5,73396.5,-9.97,-10.67,-10.75,0,*5C
1513890014.55,51409,7.56,73392.5,-9.95,-10.67,-10.75,0,*5F
1513890015.84,51410,7.5,73396.3,-9.95,-10.63,-10.63,0,*54
1513890017.1,51411,7.5,73384.8,-9.95,-10.63,-10.49,0,*5D
1513890018.33,51412,7.56,73390.0,-9.95,-10.53,-10.53,0,*56
1513890019.53,51413,7.5,73376.5,-9.97,-10.53,-10.53,0,*55
1513890020.76,51414,7.5,73374.3,-9.95,-10.49,-10.49,0,*50
1513890021.99,51415,7.56,73368.3,-9.95,-10.53,-10.53,0,*51
1513890023.22,51416,7.5,73360.5,-9.95,-10.53,-10.53,0,*52
1513890024.45,51417,7.5,73362.0,-9.95,-10.49,-10.49,0,*53
1513890025.68,51418,7.5,73350.0,-9.91,-10.49,-10.45,0,*54
1513890026.91,51419,7.56,73354.0,-9.91,-10.49,-10.49,0,*59
1513890028.17,51420,7.5,73356.3,-9.95,-10.53,-10.63,0,*54
1513890029.45,51421,7.56,73360.3,-9.95,-10.63,-10.63,0,*56
1513890030.74,51422,7.56,73370.0,-9.95,-10.63,-10.63,0,*55
1513890032.03,51423,7.5,73360.5,-9.91,-10.63,-10.63,0,*50
1513890033.31,51424,7.56,73358.5,-9.91,-10.63,-10.71,0,*54
1513890034.6,51425,7.5,73354.3,-9.91,-10.75,-10.75,0,*56
1513890035.89,51426,7.5,73360.5,-9.91,-10.71,-10.75,0,*51
1513890037.17,51427,7.56,73368.3,-9.91,-10.71,-10.71,0,*54
1513890038.46,51428,7.56,73380.5,-9.91,-10.63,-10.71,0,*58
1513890039.75,51429,7.56,73380.3,-9.91,-10.75,-10.75,0,*5A
1513890041.03,51430,7.56,73378.3,-9.91,-10.75,-10.71,0,*56
1513890042.32,51431,7.5,73376.5,-9.91,-10.71,-10.75,0,*57
1513890043.61,51432,7.56,73382.8,-9.91,-10.75,-10.75,0,*50
1513890044.89,51433,7.56,73382.5,-9.91,-10.75,-10.71,0,*55
1513890046.17,51434,7.5,73380.0,-9.91,-10.75,-10.75,0,*56
1513890047.46,51435,7.56,73378.0,-9.91,-10.75,-10.71,0,*53
1513890048.74,51436,7.5,73380.0,-9.91,-10.75,-10.75,0,*54
1513890050.03,51437,7.5,73378.0,-9.95,-10.79,-10.79,0,*51
1513890051.28,51438,7.5,73376.5,-9.95,-10.79,-10.85,0,*5D
1513890052.56,51439,7.56,73392.8,-9.95,-10.79,-10.79,0,*5F
1513890053.84,51440,7.56,73370.5,-9.95,-10.75,-10.75,0,*51
1513890055.1,51441,7.56,73366.8,-9.95,-10.93,-10.79,0,*54
1513890056.36,51442,7.5,73378.0,-9.95,-10.85,-10.79,0,*50
1513890057.64,51443,7.5,73384.3,-9.91,-10.79,-10.75,0,*5A
1513890058.93,51444,7.56,73372.5,-9.91,-10.71,-10.75,0,*55
1513890060.22,51445,7.5,73358.0,-9.91,-10.75,-10.75,0,*50
1513890061.5,51446,7.5,73382.3,-9.95,-10.75,-10.75,0,*57
1513890062.77,51447,7.56,73370.8,-9.97,-10.75,-10.67,0,*57
1513890064.05,51448,7.56,73354.3,-9.95,-10.75,-10.79,0,*55
1513890065.34,51449,7.5,73354.8,-9.95,-10.75,-10.79,0,*54
1513890066.62,51450,7.5,73366.0,-9.95,-10.79,-10.79,0,*50
1513890067.9,51451,7.56,73370.5,-9.95,-10.79,-10.75,0,*5D
1513890069.19,51452,7.56,73362.3,-9.95,-10.79,-10.75,0,*5E
1513890070.47,51453,7.56,73364.3,-9.95,-10.75,-10.79,0,*5F
1513890071.75,51454,7.56,73368.3,-9.95,-10.75,-10.79,0,*58
1513890073.04,51455,7.5,73372.0,-9.95,-10.79,-10.75,0,*59
1513890074.3,51456,7.56,73370.5,-9.97,-10.75,-10.79,0,*58
1513890075.58,51457,7.5,73368.0,-9.95,-10.75,-10.75,0,*57
1513890076.85,51458,7.56,73372.0,-9.97,-10.79,-10.75,0,*56
1513890078.13,51459,7.56,73370.5,-9.95,-10.75,-10.67,0,*5A
1513890079.41,51460,7.56,73374.8,-9.97,-10.67,-10.67,0,*51
1513890080.7,51461,7.56,73362.3,-9.95,-10.67,-10.75,0,*51
1513890081.99,51462,7.5,73358.8,-9.95,-10.67,-10.79,0,*5E
1513890083.27,51463,7.56,73356.8,-9.91,-10.71,-10.71,0,*54
1513890084.51,51464,7.56,73330.5,-9.91,-10.57,-10.57,0,*53
1513890085.79,51465,7.5,73346.8,-9.91,-10.63,-10.63,0,*52
1513890087.08,51466,7.5,73386.5,-9.91,-10.63,-10.63,0,*51
1513890088.37,51467,7.5,73358.8,-9.91,-10.63,-10.63,0,*50
1513890089.66,51468,7.56,73348.3,-9.91,-10.71,-10.63,0,*5C
1513890090.95,51469,7.56,73336.5,-9.91,-10.71,-10.71,0,*5E
1513890092.24,51470,7.5,73380.0,-9.91,-10.71,-10.63,0,*55
1513890093.53,51471,7.56,73362.5,-9.95,-10.63,-10.67,0,*57
1513890094.79,51472,7.56,73374.3,-9.89,-10.63,-10.63,0,*5D
1513890096.08,51473,7.56,73374.0,-9.91,-10.63,-10.63,0,*55
1513890097.37,51474,7.56,73370.8,-9.91,-10.63,-10.63,0,*52
1513890098.66,51475,7.5,73364.0,-9.91,-10.63,-10.63,0,*53
1513890099.92,51476,7.56,73372.8,-9.91,-10.63,-10.57,0,*57
1513890101.18,51477,7.5,73368.8,-9.91,-10.63,-10.57,0,*56
1513890102.47,51478,7.56,73378.3,-9.91,-10.63,-10.63,0,*5E
1513890103.73,51479,7.5,73380.3,-9.89,-10.71,-10.63,0,*55
1513890105.02,51480,7.56,73378.3,-9.91,-10.63,-10.71,0,*5A
1513890106.31,51481,7.5,73360.8,-9.91,-10.71,-10.75,0,*5C
1513890107.57,51482,7.5,73378.3,-9.89,-10.75,-10.71,0,*56
1513890108.85,51483,7.5,73366.5,-9.91,-10.75,-10.75,0,*5A
1513890110.14,51484,7.56,73368.8,-9.91,-10.75,-10.71,0,*59
1513890111.4,51485,7.56,73372.3,-9.89,-10.71,-10.71,0,*55
1513890112.66,51486,7.56,73382.5,-9.89,-10.63,-10.63,0,*56
1513890113.94,51487,7.56,73376.3,-9.91,-10.63,-10.71,0,*5D
1513890115.23,51488,7.56,73376.8,-9.91,-10.63,-10.63,0,*51
1513890116.5,51489,7.56,73372.0,-9.91,-10.63,-10.57,0,*57
1513890117.76,51490,7.56,73372.5,-9.89,-10.71,-10.63,0,*52
1513890119.04,51491,7.5,73380.0,-9.91,-10.71,-10.71,0,*59
1513890120.31,51492,7.56,73382.0,-9.91,-10.57,-10.63,0,*5D
1513890121.59,51493,7.5,73384.0,-9.91,-10.71,-10.75,0,*5F
1513890122.88,51494,7.56,73364.5,-9.91,-10.75,-10.75,0,*5C
1513890124.14,51495,7.56,73370.5,-9.89,-10.75,-10.75,0,*54
1513890125.43,51496,7.56,73364.0,-9.91,-10.75,-10.75,0,*5E
1513890126.69,51497,7.56,73360.3,-9.89,-10.75,-10.75,0,*56
1513890127.97,51498,7.56,73368.3,-9.91,-10.75,-10.71,0,*54
1513890129.26,51499,7.56,73356.8,-9.91,-10.71,-10.75,0,*55
1513890130.54,51500,7.56,73354.3,-9.91,-10.75,-10.71,0,*54
1513890131.8,51501,7.56,73320.3,-9.89,-10.75,-10.71,0,*5C
1513890133.06,51502,7.56,73326.8,-9.89,-10.71,-10.71,0,*5B
1513890134.34,51503,7.56,73336.8,-9.91,-10.71,-10.71,0,*53
1513890135.63,51504,7.56,73312.3,-9.91,-10.63,-10.71,0,*57
1513890136.89,51505,7.56,73310.3,-9.89,-10.63,-10.63,0,*5C
1513890138.18,51506,7.56,73354.0,-9.91,-10.63,-10.71,0,*55
1513890139.41,51507,7.56,73370.8,-9.91,-10.57,-10.57,0,*57
1513890140.65,51508,7.56,73366.8,-9.89,-10.49,-10.63,0,*59
1513890141.86,51509,7.56,73364.0,-9.89,-10.57,-10.49,0,*5F
1513890143.15,51510,7.56,73364.5,-9.91,-10.63,-10.63,0,*51
1513890144.38,51511,7.56,73366.8,-9.89,-10.63,-10.57,0,*5E
1513890145.67,51512,7.56,73350.5,-9.91,-10.63,-10.63,0,*53
1513890146.96,51513,7.56,73352.8,-9.91,-10.63,-10.71,0,*51
1513890148.24,51514,7.56,73344.0,-9.91,-10.71,-10.71,0,*55
1513890149.53,51515,7.56,73340.8,-9.91,-10.75,-10.63,0,*53
1513890150.79,51516,7.56,73324.8,-9.89,-10.71,-10.71,0,*5E
1513890152.08,51517,7.56,73326.0,-9.91,-10.71,-10.71,0,*56
1513890153.36,51518,7.56,73334.0,-9.91,-10.71,-10.71,0,*59
1513890154.65,51519,7.56,73344.8,-9.91,-10.71,-10.71,0,*58
1513890155.88,51520,7.5,73352.8,-9.89,-10.63,-10.49,0,*53
1513890157.12,51521,7.56,73356.8,-9.91,-10.49,-10.49,0,*53
1513890158.32,51522,7.5,73354.0,-9.89,-10.57,-10.57,0,*59
1513890159.53,51523,7.56,73356.3,-9.89,-10.57,-10.57,0,*58
1513890160.8,51524,7.56,73334.5,-9.89,-10.63,-10.63,0,*5F
1513890162.06,51525,7.5,73330.3,-9.89,-10.71,-10.71,0,*5E
1513890163.31,51526,7.56,73334.8,-9.89,-10.75,-10.71,0,*59
1513890164.57,51527,7.56,73334.5,-9.89,-10.75,-10.71,0,*58
1513890165.83,51528,7.56,73336.8,-9.89,-10.75,-10.75,0,*53
1513890167.09,51529,7.56,73336.3,-9.89,-10.75,-10.75,0,*52
1513890168.35,51530,7.56,73340.0,-9.89,-10.75,-10.75,0,*5A
1513890169.64,51531,7.5,73338.5,-9.91,-10.79,-10.75,0,*5E
1513890170.9,51532,7.5,73342.0,-9.89,-10.79,-10.75,0,*54
1513890172.18,51533,7.56,73346.0,-9.91,-10.75,-10.75,0,*50
1513890173.44,51534,7.56,73352.5,-9.89,-10.71,-10.71,0,*5E
1513890174.73,51535,7.56,73370.8,-9.91,-10.71,-10.63,0,*55
1513890176.02,51536,7.56,73368.8,-9.91,-10.71,-10.63,0,*56
1513890177.28,51537,7.56,73354.3,-9.89,-10.63,-10.63,0,*5D
1513890178.51,51538,7.56,73354.3,-9.89,-10.57,-10.71,0,*56
1513890179.72,51539,7.56,73342.8,-9.89,-10.45,-10.57,0,*50
1513890180.95,51540,7.56,73344.0,-9.91,-10.49,-10.57,0,*5B
1513890182.16,51541,7.56,73364.5,-9.89,-10.57,-10.57,0,*5C
1513890183.37,51542,7.5,73366.8,-9.89,-10.49,-10.49,0,*5F
1513890184.58,51543,7.56,73342.5,-9.89,-10.49,-10.35,0,*55
1513890185.82,51544,7.56,73356.5,-9.87,-10.27,-10.27,0,*57
1513890187.04,51545,7.56,73360.0,-9.87,-10.01,-10.05,0,*52
1513890188.28,51546,7.56,73366.8,-9.87,-10.15,-10.15,0,*55
1513890189.52,51547,7.56,73352.5,-9.87,-10.15,-10.15,0,*54
1513890190.76,51548,7.56,73354.8,-9.87,-10.27,-10.27,0,*5B
1513890191.97,51549,7.56,73358.5,-9.85,-10.27,-10.15,0,*59
1513890193.21,51550,7.56,73374.8,-9.87,-10.31,-10.27,0,*55
1513890194.47,51551,7.56,73382.8,-9.87,-10.41,-10.31,0,*54
1513890195.67,51552,7.56,73358.5,-9.85,-10.45,-10.45,0,*52
1513890196.91,51553,7.56,73374.5,-9.87,-10.57,-10.57,0,*51
1513890198.11,51554,7.56,73372.0,-9.85,-10.45,-10.53,0,*53
1513890199.32,51555,7.56,73366.5,-9.85,-10.45,-10.57,0,*56
1513890200.53,51556,7.56,73372.0,-9.85,-10.57,-10.53,0,*52
1513890201.73,51557,7.56,73356.0,-9.85,-10.53,-10.53,0,*57
1513890202.94,51558,7.56,73362.5,-9.85,-10.57,-10.57,0,*58
1513890204.14,51559,7.56,73386.5,-9.85,-10.57,-10.57,0,*59
1513890205.35,51560,7.56,73392.5,-9.85,-10.57,-10.53,0,*57
1513890206.56,51561,7.56,73380.0,-9.85,-10.57,-10.57,0,*52
1513890207.8,51562,7.56,73386.8,-9.85,-10.57,-10.67,0,*52
1513890209.03,51563,7.56,73382.5,-9.85,-10.53,-10.67,0,*57
1513890210.24,51564,7.56,73394.8,-9.85,-10.57,-10.57,0,*57
1513890211.47,51565,7.56,73398.8,-9.87,-10.57,-10.45,0,*57
1513890212.68,51566,7.56,73392.5,-9.85,-10.57,-10.45,0,*56
1513890213.88,51567,7.56,73396.3,-9.85,-10.53,-10.53,0,*54
1513890215.11,51568,7.5,73384.0,-9.87,-10.45,-10.53,0,*5E
1513890216.32,51569,7.56,73384.8,-9.85,-10.45,-10.45,0,*5A
1513890217.55,51570,7.56,73380.0,-9.85,-10.45,-10.41,0,*56
1513890218.84,51571,7.56,73386.8,-9.83,-10.41,-10.41,0,*55
1513890220.07,51572,7.56,73376.8,-9.83,-10.35,-10.35,0,*56
1513890221.3,51573,7.56,73370.5,-9.83,-10.09,-10.15,0,*5A
1513890222.53,51574,7.56,73368.3,-9.83,-10.23,-10.15,0,*55
1513890223.73,51575,7.5,73380.5,-9.81,-10.27,-10.23,0,*57
1513890224.97,51576,7.56,73386.3,-9.83,-10.35,-10.35,0,*52
1513890226.26,51577,7.56,73374.8,-9.83,-10.41,-10.41,0,*53
1513890227.51,51578,7.56,73368.5,-9.83,-10.53,-10.41,0,*5F
1513890228.73,51579,7.56,73368.5,-9.83,-10.49,-10.53,0,*56
1513890229.97,51580,7.56,73354.8,-9.81,-10.41,-10.49,0,*51
1513890231.17,51581,7.56,73338.8,-9.81,-10.53,-10.49,0,*53
1513890232.43,51582,7.56,73342.8,-9.83,-10.35,-10.41,0,*5A
1513890233.66,51583,7.56,73370.5,-9.81,-10.41,-10.35,0,*59
1513890234.9,51584,7.56,73368.8,-9.83,-10.35,-10.35,0,*5F
1513890236.14,51585,7.56,73378.8,-9.81,-10.41,-10.35,0,*5F
1513890237.42,51586,7.5,73380.5,-9.83,-10.41,-10.41,0,*5D
1513890238.68,51587,7.56,73380.0,-9.81,-10.41,-10.41,0,*5E
1513890239.9,51588,7.56,73380.8,-9.81,-10.35,-10.35,0,*51
1513890241.15,51589,7.56,73380.8,-9.83,-10.49,-10.41,0,*5A
1513890242.38,51590,7.56,73388.0,-9.83,-10.49,-10.49,0,*5A
1513890243.61,51591,7.5,73378.5,-9.81,-10.41,-10.53,0,*5A
1513890244.84,51592,7.56,73376.5,-9.81,-10.63,-10.49,0,*52
1513890246.05,51593,7.56,73356.0,-9.79,-10.49,-10.49,0,*5C
1513890247.26,51594,7.56,73370.5,-9.79,-10.35,-10.45,0,*5C
1513890248.48,51595,7.56,73366.8,-9.83,-10.53,-10.49,0,*54
1513890249.68,51596,7.5,73372.0,-9.81,-10.53,-10.53,0,*5E
1513890250.88,51597,7.56,73390.0,-9.81,-10.49,-10.49,0,*5F
1513890252.11,51598,7.56,73374.0,-9.83,-10.49,-10.49,0,*52
1513890253.34,51599,7.56,73338.8,-9.83,-10.49,-10.49,0,*53
1513890254.54,51600,7.56,73368.0,-9.81,-10.49,-10.53,0,*59
1513890255.74,51601,7.56,73352.5,-9.81,-10.49,-10.53,0,*58
1513890256.94,51602,7.56,73356.0,-9.81,-10.53,-10.53,0,*50
1513890258.17,51603,7.5,73370.5,-9.81,-10.53,-10.63,0,*52
1513890259.38,51604,7.56,73380.3,-9.81,-10.35,-10.35,0,*56
1513890260.64,51605,7.5,73380.0,-9.81,-10.41,-10.41,0,*57
1513890261.87,51606,7.56,73384.5,-9.81,-10.41,-10.53,0,*57
1513890263.08,51607,7.56,73390.3,-9.79,-10.49,-10.45,0,*5E
1513890264.31,51608,7.56,73386.8,-9.77,-10.45,-10.49,0,*5F
1513890265.52,51609,7.5,73388.0,-9.79,-10.45,-10.45,0,*5C
1513890266.72,51610,7.56,73396.8,-9.79,-10.49,-10.49,0,*54
1513890267.93,51611,7.56,73378.0,-9.79,-10.49,-10.49,0,*55
1513890269.19,51612,7.56,73382.3,-9.79,-10.63,-10.63,0,*56
1513890270.45,51613,7.56,73376.5,-9.79,-10.63,-10.63,0,*57
1513890271.67,51614,7.56,73372.3,-9.81,-10.79,-10.85,0,*54
1513890272.93,51615,7.5,73370.3,-9.81,-11.07,-11.07,0,*56
1513890274.19,51616,7.56,73386.8,-9.81,-10.79,-10.79,0,*55
1513890275.46,51617,7.56,73396.5,-9.81,-10.67,-10.67,0,*54
1513890276.74,51618,7.56,73418.5,-9.83,-10.67,-10.63,0,*5D
1513890278.01,51619,7.56,73364.8,-9.81,-10.67,-10.67,0,*5A
1513890279.27,51620,7.5,73370.0,-9.81,-10.67,-10.67,0,*50
1513890280.56,51621,7.56,73390.5,-9.83,-10.67,-10.67,0,*53
1513890281.85,51622,7.56,73400.3,-9.83,-10.67,-10.67,0,*50
1513890283.1,51623,7.56,73384.8,-9.83,-10.53,-10.63,0,*52
1513890284.37,51624,7.56,73342.0,-9.81,-10.67,-10.67,0,*54
1513890285.63,51625,7.56,73344.3,-9.81,-10.71,-10.79,0,*5D
1513890286.88,51626,7.56,73390.0,-9.81,-10.71,-10.71,0,*56
1513890288.14,51627,7.56,73376.0,-9.81,-10.71,-10.71,0,*57
1513890289.41,51628,7.56,73392.5,-9.81,-10.67,-10.67,0,*58
1513890290.67,51629,7.56,73392.0,-9.81,-10.67,-10.63,0,*5D
1513890291.92,51630,7.56,73396.0,-9.83,-10.53,-10.63,0,*50
1513890293.12,51631,7.56,73394.8,-9.81,-10.53,-10.49,0,*5B
1513890294.32,51632,7.56,73402.3,-9.81,-10.53,-10.49,0,*58
1513890295.52,51633,7.5,73402.3,-9.81,-10.53,-10.53,0,*52
1513890296.75,51634,7.56,73396.0,-9.81,-10.49,-10.63,0,*5D
1513890297.98,51635,7.56,73402.5,-9.81,-10.53,-10.67,0,*53
1513890299.24,51636,7.56,73398.3,-9.81,-10.63,-10.63,0,*57
1513890300.44,51637,7.56,73400.8,-9.81,-10.49,-10.49,0,*56
1513890301.64,51638,7.56,73386.3,-9.81,-10.53,-10.53,0,*59
1513890302.84,51639,7.56,73370.3,-9.81,-10.49,-10.53,0,*53
1513890304.04,51640,7.56,73374.8,-9.81,-10.53,-10.53,0,*56
1513890305.24,51641,7.56,73394.0,-9.81,-10.53,-10.49,0,*5C
1513890306.45,51642,7.56,73402.8,-9.79,-10.57,-10.49,0,*5C
1513890307.65,51643,7.56,73400.0,-9.79,-10.45,-10.49,0,*5E
1513890308.85,51644,7.56,73398.3,-9.81,-10.49,-10.53,0,*59
1513890310.05,51645,7.56,73404.3,-9.81,-10.53,-10.53,0,*53
1513890311.25,51646,7.56,73404.8,-9.81,-10.53,-10.53,0,*50
1513890312.45,51647,7.56,73404.3,-9.81,-10.53,-10.53,0,*51
1513890313.66,51648,7.56,73402.0,-9.79,-10.49,-10.49,0,*59
1513890314.86,51649,7.56,73400.8,-9.79,-10.49,-10.49,0,*58
1513890316.07,51650,7.56,73406.5,-9.79,-10.49,-10.49,0,*50
1513890317.27,51651,7.56,73396.8,-9.79,-10.49,-10.49,0,*51
1513890318.48,51652,7.56,73398.3,-9.79,-10.45,-10.49,0,*5E
1513890319.68,51653,7.56,73396.8,-9.79,-10.49,-10.45,0,*5F
1513890320.89,51654,7.56,73400.3,-9.79,-10.45,-10.45,0,*54
1513890322.12,51655,7.56,73398.5,-9.77,-10.49,-10.45,0,*57
1513890323.33,51656,7.56,73396.0,-9.79,-10.57,-10.57,0,*56
1513890324.53,51657,7.56,73394.8,-9.79,-10.49,-10.45,0,*5B
1513890325.74,51658,7.5,73380.3,-9.79,-10.45,-10.45,0,*58
1513890326.94,51659,7.56,73390.5,-9.79,-10.45,-10.45,0,*59
1513890328.19,51660,7.56,73390.0,-9.77,-10.35,-10.35,0,*5D
1513890329.4,51661,7.56,73380.8,-9.79,-10.49,-10.35,0,*59
1513890330.6,51662,7.5,73372.0,-9.79,-10.49,-10.49,0,*51
1513890331.81,51663,7.5,73372.0,-9.79,-10.57,-10.57,0,*50
1513890333.04,51664,7.56,73382.8,-9.79,-10.63,-10.57,0,*50
1513890334.31,51665,7.56,73376.0,-9.79,-10.63,-10.63,0,*56
1513890335.54,51666,7.56,73376.3,-9.79,-10.57,-10.63,0,*52
1513890336.75,51667,7.56,73376.8,-9.79,-10.57,-10.57,0,*54
1513890337.98,51668,7.56,73384.8,-9.79,-10.57,-10.63,0,*5C
1513890339.22,51669,7.5,73380.5,-9.79,-10.63,-10.57,0,*5D
1513890340.45,51670,7.56,73388.0,-9.79,-10.57,-10.63,0,*55
1513890341.68,51671,7.56,73396.8,-9.79,-10.57,-10.63,0,*54
1513890342.92,51672,7.56,73388.5,-9.79,-10.57,-10.63,0,*57
1513890344.12,51673,7.56,73394.8,-9.79,-10.49,-10.49,0,*51
1513890345.33,51674,7.56,73376.8,-9.79,-10.49,-10.49,0,*56
1513890346.62,51675,7.56,73382.3,-9.77,-10.63,-10.63,0,*59
1513890347.88,51676,7.56,73376.0,-9.79,-10.63,-10.63,0,*54
1513890349.14,51677,7.56,73382.0,-9.79,-10.63,-10.63,0,*55
1513890350.41,51678,7.56,73384.8,-9.79,-10.67,-10.63,0,*5E
1513890351.67,51679,7.56,73388.5,-9.79,-10.63,-10.63,0,*5B
1513890352.94,51680,7.56,73392.5,-9.79,-10.67,-10.67,0,*5D
1513890354.2,51681,7.56,73388.3,-9.79,-10.75,-10.67,0,*5F
1513890355.46,51682,7.56,73396.0,-9.79,-10.75,-10.67,0,*5C
1513890356.73,51683,7.56,73388.8,-9.79,-10.67,-10.75,0,*5D
1513890357.99,51684,7.56,73388.0,-9.79,-10.67,-10.63,0,*5D
1513890359.26,51685,7.56,73374.3,-9.81,-10.67,-10.63,0,*5B
1513890360.52,51686,7.56,73388.3,-9.79,-10.67,-10.67,0,*5B
1513890361.79,51687,7.56,73388.3,-9.79,-10.67,-10.67,0,*5A
1513890363.06,51688,7.56,73388.5,-9.79,-10.67,-10.67,0,*55
1513890364.36,51689,7.56,73392.5,-9.77,-10.63,-10.67,0,*5E
1513890365.59,51690,7.56,73394.0,-9.79,-10.57,-10.63,0,*5B
1513890366.8,51691,7.56,73390.0,-9.79,-10.57,-10.57,0,*5D
1513890368.0,51692,7.56,73384.5,-9.79,-10.57,-10.57,0,*5E
1513890369.21,51693,7.56,73384.0,-9.79,-10.57,-10.57,0,*5F
1513890370.45,51694,7.56,73394.0,-9.77,-10.57,-10.49,0,*59
1513890371.65,51695,7.56,73394.3,-9.79,-10.49,-10.45,0,*55
1513890372.86,51696,7.5,73386.3,-9.79,-10.49,-10.45,0,*56
1513890374.07,51697,7.56,73378.8,-9.79,-10.57,-10.49,0,*54
1513890375.27,51698,7.56,73376.8,-9.79,-10.57,-10.57,0,*54
1513890376.48,51699,7.56,73380.5,-9.79,-10.57,-10.57,0,*55
1513890377.71,51700,7.56,73390.5,-9.79,-10.57,-10.63,0,*53
1513890378.92,51701,7.56,73390.0,-9.79,-10.57,-10.57,0,*55
1513890380.16,51702,7.56,73394.3,-9.79,-10.63,-10.57,0,*51
1513890381.42,51703,7.56,73378.8,-9.79,-10.63,-10.63,0,*57
1513890382.71,51704,7.56,73348.0,-9.77,-10.63,-10.63,0,*5E
1513890383.94,51705,7.56,73358.5,-9.79,-10.57,-10.63,0,*56
1513890385.2,51706,7.5,73366.8,-9.79,-10.63,-10.63,0,*52
1513890386.47,51707,7.56,73356.0,-9.79,-10.63,-10.63,0,*53
1513890387.7,51708,7.56,73376.8,-9.79,-10.63,-10.57,0,*5B
1513890388.96,51709,7.56,73406.8,-9.79,-10.63,-10.63,0,*5D
1513890390.2,51710,7.56,73412.5,-9.79,-10.63,-10.57,0,*52
1513890391.43,51711,7.56,73406.3,-9.77,-10.49,-10.49,0,*5A
1513890392.7,51712,7.56,73402.5,-9.77,-10.57,-10.63,0,*5E
1513890393.96,51713,7.56,73398.5,-9.77,-10.57,-10.63,0,*5F
1513890395.22,51714,7.56,73386.0,-9.79,-10.63,-10.63,0,*51
1513890396.51,51715,7.56,73394.8,-9.77,-10.63,-10.63,0,*5E
1513890397.78,51716,7.56,73374.3,-9.79,-10.67,-10.63,0,*57
1513890399.07,51717,7.56,73374.8,-9.77,-10.79,-10.75,0,*50
1513890400.32,51718,7.56,73364.0,-9.79,-10.75,-10.79,0,*51
1513890401.58,51719,7.56,73380.0,-9.79,-10.75,-10.75,0,*5C
1513890402.84,51720,7.56,73390.3,-9.79,-10.75,-10.75,0,*56
1513890404.1,51721,7.56,73384.3,-9.79,-10.75,-10.75,0,*57
1513890405.33,51722,7.56,73364.0,-9.79,-10.79,-10.89,0,*5B
1513890406.59,51723,7.56,73344.0,-9.79,-10.79,-10.79,0,*55
1513890407.84,51724,7.56,73342.5,-9.79,-10.79,-10.79,0,*52
1513890409.1,51725,7.56,73346.5,-9.79,-10.79,-10.79,0,*53
1513890410.36,51726,7.56,73342.5,-9.79,-10.75,-10.75,0,*50
1513890411.63,51727,7.56,73348.5,-9.79,-10.67,-10.67,0,*51
1513890412.88,51728,7.56,73372.0,-9.81,-10.71,-10.71,0,*59
1513890414.15,51729,7.56,73376.5,-9.81,-10.63,-10.67,0,*5C
1513890415.41,51730,7.56,73388.5,-9.81,-10.63,-10.63,0,*50
1513890416.61,51731,7.56,73390.8,-9.81,-10.53,-10.53,0,*51
1513890417.81,51732,7.56,73390.3,-9.79,-10.49,-10.49,0,*55
1513890419.02,51733,7.56,73392.5,-9.79,-10.57,-10.57,0,*54
1513890420.23,51734,7.56,73388.0,-9.79,-10.57,-10.57,0,*53
1513890421.43,51735,7.56,73386.5,-9.79,-10.49,-10.49,0,*52
1513890422.67,51736,7.5,73372.8,-9.77,-10.45,-10.49,0,*53
1513890423.87,51737,7.56,73378.0,-9.79,-10.49,-10.45,0,*5C
1513890425.08,51738,7.56,73380.3,-9.79,-10.45,-10.49,0,*53
1513890426.28,51739,7.56,73374.8,-9.79,-10.49,-10.45,0,*52
1513890427.48,51740,7.56,73372.5,-9.79,-10.45,-10.45,0,*50
1513890428.69,51741,7.56,73382.8,-9.79,-10.45,-10.35,0,*56
1513890429.91,51742,7.56,73378.8,-9.79,-10.35,-10.35,0,*52
1513890431.15,51743,7.56,73378.8,-9.77,-10.35,-10.45,0,*5A
1513890432.36,51744,7.56,73382.5,-9.79,-10.49,-10.49,0,*54
1513890433.56,51745,7.56,73374.5,-9.79,-10.49,-10.49,0,*55
1513890434.77,51746,7.56,73376.5,-9.79,-10.49,-10.45,0,*5A
1513890436.0,51747,7.56,73368.8,-9.77,-10.57,-10.49,0,*56
1513890437.24,51748,7.56,73374.3,-9.77,-10.57,-10.57,0,*56
1513890438.48,51749,7.56,73372.5,-9.77,-10.57,-10.57,0,*57
1513890439.74,51750,7.56,73368.0,-9.77,-10.57,-10.63,0,*58
1513890441.0,51751,7.56,73366.5,-9.79,-10.63,-10.63,0,*50
1513890442.29,51752,7.5,73366.8,-9.77,-10.63,-10.63,0,*5D
1513890443.59,51753,7.56,73374.8,-9.77,-10.67,-10.67,0,*5C
1513890444.85,51754,7.5,73364.0,-9.79,-10.75,-10.75,0,*55
1513890446.05,51755,7.56,73364.5,-9.79,-10.89,-10.89,0,*54
1513890447.29,51756,7.56,73356.0,-9.77,-10.89,-10.89,0,*59
1513890448.5,51757,7.56,73346.8,-9.79,-10.93,-10.89,0,*5D
1513890449.7,51758,7.56,73352.3,-9.79,-10.89,-10.89,0,*59
1513890450.96,51759,7.56,73348.5,-9.79,-10.79,-10.67,0,*57
1513890452.22,51760,7.56,73354.5,-9.79,-10.75,-10.67,0,*51
1513890453.48,51761,7.56,73366.0,-9.81,-10.79,-10.71,0,*5C
1513890454.73,51762,7.5,73374.3,-9.81,-10.71,-10.79,0,*5F
1513890456.0,51763,7.56,73378.5,-9.79,-10.67,-10.67,0,*51
1513890457.27,51764,7.56,73384.0,-9.79,-10.63,-10.67,0,*52
1513890458.53,51765,7.56,73390.0,-9.79,-10.63,-10.63,0,*57
1513890459.79,51766,7.56,73386.3,-9.79,-10.63,-10.63,0,*54
1513890461.03,51767,7.56,73382.3,-9.79,-10.63,-10.57,0,*52
1513890462.23,51768,7.56,73376.0,-9.79,-10.57,-10.57,0,*5A
1513890463.47,51769,7.56,73380.3,-9.79,-10.57,-10.63,0,*5C
1513890464.7,51770,7.56,73380.0,-9.79,-10.63,-10.57,0,*54
1513890465.91,51771,7.56,73382.3,-9.79,-10.57,-10.57,0,*52
1513890467.14,51772,7.56,73384.8,-9.79,-10.57,-10.63,0,*56
1513890468.41,51773,7.56,73384.3,-9.79,-10.63,-10.63,0,*50
1513890469.61,51774,7.56,73388.3,-9.79,-10.57,-10.57,0,*57
1513890470.82,51775,7.56,73382.8,-9.79,-10.45,-10.57,0,*55
1513890472.02,51776,7.56,73386.5,-9.79,-10.49,-10.57,0,*5A
1513890473.26,51777,7.56,73374.8,-9.79,-10.63,-10.57,0,*53
1513890474.49,51778,7.56,73370.0,-9.79,-10.57,-10.63,0,*5C
1513890475.7,51779,7.56,73368.3,-9.79,-10.57,-10.49,0,*55
1513890476.96,51780,7.56,73368.5,-9.79,-10.63,-10.63,0,*5C
1513890478.2,51781,7.56,73348.5,-9.79,-10.63,-10.57,0,*5A
1513890479.43,51782,7.56,73352.3,-9.77,-10.57,-10.57,0,*50
1513890480.73,51783,7.56,73358.5,-9.77,-10.63,-10.67,0,*55
1513890481.99,51784,7.56,73362.0,-9.79,-10.63,-10.63,0,*58
1513890483.25,51785,7.56,73342.8,-9.79,-10.63,-10.63,0,*59
1513890484.51,51786,7.56,73340.5,-9.79,-10.63,-10.63,0,*5A
1513890485.78,51787,7.56,73362.3,-9.79,-10.67,-10.63,0,*5F
1513890487.04,51788,7.56,73364.3,-9.79,-10.63,-10.67,0,*50
1513890488.31,51789,7.56,73356.5,-9.79,-10.67,-10.67,0,*55
1513890489.58,51790,7.56,73354.8,-9.77,-10.63,-10.57,0,*54
1513890490.84,51791,7.56,73358.8,-9.79,-10.63,-10.63,0,*5C
1513890492.1,51792,7.56,73350.3,-9.77,-10.57,-10.63,0,*56
1513890493.31,51793,7.56,73352.8,-9.79,-10.57,-10.57,0,*5E
1513890494.6,51794,7.56,73366.3,-9.77,-10.63,-10.63,0,*57
1513890495.84,51795,7.56,73364.5,-9.77,-10.57,-10.57,0,*56
1513890497.04,51796,7.56,73356.8,-9.79,-10.57,-10.57,0,*5B
1513890498.31,51797,7.56,73358.3,-9.79,-10.67,-10.67,0,*5A
1513890499.58,51798,7.56,73362.5,-9.79,-10.67,-10.67,0,*55
1513890500.85,51799,7.56,73362.3,-9.79,-10.67,-10.67,0,*54
1513890502.11,51800,7.56,73376.5,-9.79,-10.63,-10.67,0,*5F
1513890503.38,51801,7.56,73376.8,-9.79,-10.63,-10.67,0,*5E
1513890504.64,51802,7.56,73366.3,-9.77,-10.57,-10.63,0,*50
1513890505.9,51803,7.56,73382.3,-9.79,-10.63,-10.63,0,*58
1513890507.17,51804,7.5,73378.5,-9.79,-10.67,-10.67,0,*5F
1513890508.38,51805,7.56,73388.5,-9.79,-10.93,-11.01,0,*54